| time (UTC) | temp F | wind direction | speed MPH | gust MPH | rain 1hr in | rain 24hr in | rain mn in | humidity % | barometer mb |
| 20260508151024 | 67 | 52 | 2.0 | 6.0 | 0.00 | 0.00 | 0.00 | 39 | 1018.8 |
| 20260508150524 | 67 | 91 | 1.0 | 10.0 | 0.00 | 0.00 | 0.00 | 42 | 1018.8 |
| 20260508150037 | 66 | 108 | 1.0 | 10.0 | 0.00 | 0.00 | 0.00 | 40 | 1018.8 |
| 20260508145523 | 65 | 94 | 2.0 | 10.0 | 0.00 | 0.00 | 0.00 | 41 | 1018.7 |
| 20260508145023 | 66 | 136 | 3.0 | 6.0 | 0.00 | 0.00 | 0.00 | 40 | 1018.7 |
| 20260508144542 | 65 | 34 | 2.0 | 7.0 | 0.00 | 0.00 | 0.00 | 43 | 1018.7 |
| 20260508144023 | 65 | 110 | 3.0 | 7.0 | 0.00 | 0.00 | 0.00 | 41 | 1018.7 |
| 20260508143523 | 67 | 90 | 3.0 | 7.0 | 0.00 | 0.00 | 0.00 | 40 | 1018.6 |
| 20260508143041 | 66 | 0 | 0.0 | 7.0 | 0.00 | 0.00 | 0.00 | 47 | 1018.6 |
| 20260508142523 | 65 | 98 | 3.0 | 7.0 | 0.00 | 0.00 | 0.00 | 44 | 1018.6 |
| 20260508142023 | 66 | 105 | 2.0 | 7.0 | 0.00 | 0.00 | 0.00 | 44 | 1018.6 |
| 20260508141539 | 65 | 0 | 0.0 | 6.0 | 0.00 | 0.00 | 0.00 | 44 | 1018.6 |
| 20260508141023 | 65 | 133 | 1.0 | 6.0 | 0.00 | 0.00 | 0.00 | 45 | 1018.7 |
| 20260508140526 | 64 | 86 | 1.0 | 6.0 | 0.00 | 0.00 | 0.00 | 46 | 1018.9 |
| 20260508140040 | 64 | 81 | 2.0 | 6.0 | 0.00 | 0.00 | 0.00 | 45 | 1018.9 |
| 20260508135526 | 64 | 90 | 3.0 | 6.0 | 0.00 | 0.03 | 0.00 | 46 | 1019.0 |
| 20260508135024 | 64 | 270 | 0.0 | 2.0 | 0.00 | 0.03 | 0.00 | 47 | 1019.1 |
| 20260508134542 | 64 | 301 | 0.0 | 4.0 | 0.00 | 0.03 | 0.00 | 47 | 1019.2 |
| 20260508134023 | 63 | 108 | 1.0 | 4.0 | 0.00 | 0.03 | 0.00 | 50 | 1019.2 |
| 20260508133528 | 63 | 349 | 1.0 | 6.0 | 0.00 | 0.03 | 0.00 | 65 | 1019.2 |
| 20260508133037 | 61 | 0 | 0.0 | 6.0 | 0.00 | 0.03 | 0.00 | 67 | 1019.0 |
| 20260508132523 | 62 | 295 | 0.0 | 1.0 | 0.00 | 0.03 | 0.00 | 65 | 1019.1 |
| 20260508132023 | 61 | 284 | 0.0 | 1.0 | 0.00 | 0.03 | 0.00 | 65 | 1019.1 |
| 20260508131540 | 60 | 29 | 0.0 | 2.0 | 0.00 | 0.03 | 0.00 | 68 | 1019.1 |
| 20260508131023 | 59 | 0 | 0.0 | 2.0 | 0.00 | 0.03 | 0.00 | 69 | 1019.1 |
| 20260508130522 | 59 | 309 | 0.0 | 1.0 | 0.00 | 0.03 | 0.00 | 71 | 1019.0 |
| 20260508130039 | 59 | 354 | 0.0 | 1.0 | 0.00 | 0.03 | 0.00 | 72 | 1019.0 |
| 20260508125523 | 59 | 0 | 0.0 | 2.0 | 0.00 | 0.11 | 0.00 | 76 | 1018.9 |
| 20260508125023 | 58 | 0 | 0.0 | 2.0 | 0.00 | 0.11 | 0.00 | 77 | 1018.9 |
| 20260508124537 | 57 | 346 | 0.0 | 1.0 | 0.00 | 0.11 | 0.00 | 79 | 1018.8 |
| 20260508124022 | 57 | 0 | 0.0 | 1.0 | 0.00 | 0.11 | 0.00 | 78 | 1018.6 |
| 20260508123522 | 56 | 0 | 0.0 | 1.0 | 0.00 | 0.11 | 0.00 | 80 | 1018.5 |
| 20260508123037 | 55 | 0 | 0.0 | 1.0 | 0.00 | 0.11 | 0.00 | 81 | 1018.5 |
| 20260508122523 | 55 | 0 | 0.0 | 2.0 | 0.00 | 0.11 | 0.00 | 82 | 1018.4 |
| 20260508122022 | 54 | 335 | 0.0 | 2.0 | 0.00 | 0.11 | 0.00 | 83 | 1018.4 |
| 20260508121541 | 54 | 303 | 0.0 | 1.0 | 0.00 | 0.11 | 0.00 | 85 | 1018.3 |
| 20260508121024 | 54 | 0 | 0.0 | 1.0 | 0.00 | 0.11 | 0.00 | 85 | 1018.3 |
| 20260508120523 | 53 | 0 | 0.0 | 1.0 | 0.00 | 0.11 | 0.00 | 85 | 1018.1 |
| 20260508120042 | 53 | 0 | 0.0 | 1.0 | 0.00 | 0.11 | 0.00 | 86 | 1018.1 |
| 20260508115523 | 53 | 0 | 0.0 | 1.0 | 0.00 | 0.22 | 0.00 | 86 | 1017.9 |
| 20260508115022 | 52 | 0 | 0.0 | 1.0 | 0.00 | 0.22 | 0.00 | 86 | 1017.9 |
| 20260508114546 | 52 | 0 | 0.0 | 1.0 | 0.00 | 0.22 | 0.00 | 86 | 1018.0 |
| 20260508114023 | 51 | 0 | 0.0 | 0.0 | 0.00 | 0.22 | 0.00 | 85 | 1017.9 |
| 20260508113523 | 51 | 0 | 0.0 | 0.0 | 0.00 | 0.22 | 0.00 | 85 | 1017.7 |
| 20260508113043 | 50 | 0 | 0.0 | 1.0 | 0.00 | 0.22 | 0.00 | 85 | 1017.7 |
| 20260508112523 | 50 | 0 | 0.0 | 1.0 | 0.00 | 0.22 | 0.00 | 85 | 1017.7 |
| 20260508112023 | 50 | 288 | 0.0 | 0.0 | 0.00 | 0.22 | 0.00 | 85 | 1017.5 |
| 20260508111551 | 49 | 0 | 0.0 | 1.0 | 0.00 | 0.22 | 0.00 | 85 | 1017.4 |
| 20260508111024 | 49 | 0 | 0.0 | 1.0 | 0.00 | 0.22 | 0.00 | 85 | 1017.2 |
| 20260508110523 | 49 | 0 | 0.0 | 0.0 | 0.00 | 0.22 | 0.00 | 85 | 1017.1 |
| 20260508110037 | 49 | 0 | 0.0 | 1.0 | 0.00 | 0.22 | 0.00 | 85 | 1017.0 |
| 20260508105523 | 49 | 0 | 0.0 | 1.0 | 0.00 | 0.36 | 0.00 | 84 | 1017.0 |
| 20260508105022 | 49 | 0 | 0.0 | 0.0 | 0.00 | 0.36 | 0.00 | 84 | 1016.9 |
| 20260508104541 | 49 | 0 | 0.0 | 0.0 | 0.00 | 0.36 | 0.00 | 84 | 1016.8 |
| 20260508104023 | 49 | 0 | 0.0 | 0.0 | 0.00 | 0.36 | 0.00 | 84 | 1016.7 |
| 20260508103523 | 49 | 0 | 0.0 | 1.0 | 0.00 | 0.36 | 0.00 | 84 | 1016.7 |
| 20260508103039 | 49 | 0 | 0.0 | 1.0 | 0.00 | 0.36 | 0.00 | 84 | 1016.6 |
| 20260508102522 | 49 | 288 | 0.0 | 0.0 | 0.00 | 0.36 | 0.00 | 84 | 1016.5 |
| 20260508102023 | 49 | 0 | 0.0 | 0.0 | 0.00 | 0.36 | 0.00 | 84 | 1016.4 |
| 20260508101538 | 49 | 0 | 0.0 | 0.0 | 0.00 | 0.36 | 0.00 | 84 | 1016.5 |
| 20260508101023 | 49 | 0 | 0.0 | 0.0 | 0.00 | 0.36 | 0.00 | 84 | 1016.4 |
| 20260508100522 | 49 | 0 | 0.0 | 0.0 | 0.00 | 0.36 | 0.00 | 84 | 1016.2 |
| 20260508100038 | 49 | 0 | 0.0 | 0.0 | 0.00 | 0.36 | 0.00 | 84 | 1016.1 |
| 20260508095522 | 49 | 0 | 0.0 | 0.0 | 0.00 | 0.42 | 0.00 | 83 | 1016.1 |
| 20260508095022 | 49 | 0 | 0.0 | 0.0 | 0.00 | 0.42 | 0.00 | 83 | 1016.0 |
| 20260508094536 | 49 | 0 | 0.0 | 0.0 | 0.00 | 0.42 | 0.00 | 83 | 1015.9 |
| 20260508094023 | 49 | 0 | 0.0 | 1.0 | 0.00 | 0.42 | 0.00 | 83 | 1015.8 |
| 20260508093524 | 49 | 0 | 0.0 | 1.0 | 0.00 | 0.42 | 0.00 | 83 | 1015.7 |
| 20260508093036 | 49 | 0 | 0.0 | 0.0 | 0.00 | 0.42 | 0.00 | 81 | 1015.8 |
| 20260508092525 | 49 | 0 | 0.0 | 0.0 | 0.00 | 0.42 | 0.00 | 80 | 1015.8 |
| 20260508092024 | 49 | 0 | 0.0 | 0.0 | 0.00 | 0.42 | 0.00 | 80 | 1015.7 |
| 20260508091547 | 49 | 0 | 0.0 | 0.0 | 0.00 | 0.42 | 0.00 | 80 | 1015.7 |
| 20260508091023 | 49 | 0 | 0.0 | 0.0 | 0.00 | 0.42 | 0.00 | 79 | 1015.7 |
| 20260508090523 | 49 | 0 | 0.0 | 0.0 | 0.00 | 0.42 | 0.00 | 79 | 1015.5 |
| 20260508090043 | 49 | 0 | 0.0 | 0.0 | 0.00 | 0.42 | 0.00 | 77 | 1015.6 |
| 20260508085522 | 49 | 0 | 0.0 | 0.0 | 0.00 | 0.47 | 0.00 | 75 | 1015.5 |
| 20260508085022 | 49 | 0 | 0.0 | 0.0 | 0.00 | 0.47 | 0.00 | 73 | 1015.4 |
| 20260508084537 | 49 | 0 | 0.0 | 1.0 | 0.00 | 0.47 | 0.00 | 73 | 1015.4 |
| 20260508084025 | 50 | 0 | 0.0 | 1.0 | 0.00 | 0.47 | 0.00 | 73 | 1015.4 |
| 20260508083524 | 50 | 288 | 0.0 | 1.0 | 0.00 | 0.47 | 0.00 | 72 | 1015.3 |
| 20260508083043 | 50 | 0 | 0.0 | 0.0 | 0.00 | 0.47 | 0.00 | 71 | 1015.4 |
| 20260508082523 | 50 | 0 | 0.0 | 1.0 | 0.00 | 0.47 | 0.00 | 70 | 1015.4 |
| 20260508082024 | 50 | 0 | 0.0 | 1.0 | 0.00 | 0.47 | 0.00 | 69 | 1015.3 |
| 20260508081545 | 50 | 288 | 1.0 | 1.0 | 0.00 | 0.47 | 0.00 | 69 | 1015.4 |
| 20260508081023 | 50 | 0 | 0.0 | 0.0 | 0.00 | 0.47 | 0.00 | 68 | 1015.4 |
| 20260508080527 | 51 | 0 | 0.0 | 0.0 | 0.00 | 0.47 | 0.00 | 67 | 1015.3 |
| 20260508080036 | 51 | 0 | 0.0 | 0.0 | 0.00 | 0.47 | 0.00 | 67 | 1015.2 |
| 20260508075523 | 51 | 0 | 0.0 | 0.0 | 0.00 | 0.78 | 0.00 | 67 | 1015.2 |
| 20260508075023 | 51 | 0 | 0.0 | 0.0 | 0.00 | 0.78 | 0.00 | 67 | 1015.3 |
| 20260508074542 | 51 | 0 | 0.0 | 0.0 | 0.00 | 0.78 | 0.00 | 66 | 1015.3 |
| 20260508074023 | 51 | 0 | 0.0 | 1.0 | 0.00 | 0.78 | 0.00 | 66 | 1015.2 |
| 20260508073523 | 51 | 0 | 0.0 | 1.0 | 0.00 | 0.78 | 0.00 | 67 | 1015.3 |
| 20260508073039 | 51 | 0 | 0.0 | 1.0 | 0.00 | 0.78 | 0.00 | 69 | 1015.2 |
| 20260508072522 | 50 | 0 | 0.0 | 1.0 | 0.00 | 0.78 | 0.00 | 70 | 1015.3 |
| 20260508072022 | 50 | 0 | 0.0 | 0.0 | 0.00 | 0.78 | 0.00 | 69 | 1015.3 |
| 20260508071538 | 50 | 0 | 0.0 | 0.0 | 0.00 | 0.78 | 0.00 | 68 | 1015.3 |
| 20260508071023 | 51 | 0 | 0.0 | 0.0 | 0.00 | 0.78 | 0.00 | 68 | 1015.2 |
| 20260508070525 | 51 | 0 | 0.0 | 0.0 | 0.00 | 0.78 | 0.00 | 68 | 1015.3 |
| 20260508070038 | 51 | 0 | 0.0 | 0.0 | 0.00 | 0.78 | 0.00 | 68 | 1015.2 |
| 20260508065525 | 51 | 0 | 0.0 | 0.0 | 0.00 | 0.88 | 0.00 | 68 | 1015.3 |
| 20260508065023 | 51 | 0 | 0.0 | 0.0 | 0.00 | 0.88 | 0.00 | 67 | 1015.2 |
| 20260508064542 | 51 | 0 | 0.0 | 0.0 | 0.00 | 0.88 | 0.00 | 67 | 1015.2 |
| 20260508064026 | 51 | 0 | 0.0 | 0.0 | 0.00 | 0.88 | 0.00 | 66 | 1015.2 |
| 20260508063526 | 52 | 0 | 0.0 | 0.0 | 0.00 | 0.88 | 0.00 | 66 | 1015.1 |
| 20260508063040 | 52 | 0 | 0.0 | 1.0 | 0.00 | 0.88 | 0.00 | 66 | 1015.2 |
| 20260508062522 | 52 | 0 | 0.0 | 1.0 | 0.00 | 0.88 | 0.00 | 66 | 1015.2 |
| 20260508062023 | 52 | 288 | 0.0 | 1.0 | 0.00 | 0.88 | 0.00 | 67 | 1015.2 |
| 20260508061540 | 52 | 0 | 0.0 | 0.0 | 0.00 | 0.88 | 0.00 | 66 | 1015.2 |
| 20260508061028 | 52 | 0 | 0.0 | 0.0 | 0.00 | 0.88 | 0.00 | 66 | 1015.3 |
| 20260508060525 | 52 | 0 | 0.0 | 0.0 | 0.00 | 0.88 | 0.00 | 65 | 1015.3 |
| 20260508060038 | 53 | 0 | 0.0 | 1.0 | 0.00 | 0.88 | 0.00 | 65 | 1015.4 |
| 20260508055522 | 53 | 0 | 0.0 | 1.0 | 0.00 | 1.04 | 0.00 | 66 | 1015.3 |
| 20260508055022 | 52 | 0 | 0.0 | 0.0 | 0.00 | 1.04 | 0.00 | 66 | 1015.3 |
| 20260508054544 | 52 | 0 | 0.0 | 0.0 | 0.00 | 1.04 | 0.00 | 66 | 1015.4 |
| 20260508054026 | 52 | 0 | 0.0 | 0.0 | 0.00 | 1.04 | 0.00 | 66 | 1015.4 |
| 20260508053526 | 53 | 0 | 0.0 | 0.0 | 0.00 | 1.04 | 0.00 | 65 | 1015.5 |
| 20260508053037 | 53 | 0 | 0.0 | 0.0 | 0.00 | 1.04 | 0.00 | 65 | 1015.4 |
| 20260508052522 | 53 | 0 | 0.0 | 0.0 | 0.00 | 1.04 | 0.00 | 65 | 1015.3 |
| 20260508052022 | 53 | 0 | 0.0 | 0.0 | 0.00 | 1.04 | 0.00 | 65 | 1015.5 |
| 20260508051538 | 54 | 0 | 0.0 | 0.0 | 0.00 | 1.04 | 0.00 | 65 | 1015.5 |
| 20260508051023 | 54 | 0 | 0.0 | 0.0 | 0.00 | 1.04 | 0.00 | 64 | 1015.4 |
| 20260508050524 | 54 | 0 | 0.0 | 0.0 | 0.00 | 1.04 | 0.00 | 63 | 1015.4 |
| 20260508050041 | 54 | 0 | 0.0 | 0.0 | 0.00 | 1.04 | 0.00 | 63 | 1015.3 |
| 20260508045526 | 54 | 0 | 0.0 | 0.0 | 0.00 | 1.29 | 0.00 | 63 | 1015.2 |
| 20260508045025 | 55 | 0 | 0.0 | 0.0 | 0.00 | 1.29 | 0.00 | 62 | 1015.2 |
| 20260508044538 | 55 | 0 | 0.0 | 0.0 | 0.00 | 1.29 | 0.00 | 62 | 1015.3 |
| 20260508044023 | 55 | 0 | 0.0 | 0.0 | 0.00 | 1.29 | 0.00 | 61 | 1015.3 |
| 20260508043523 | 55 | 0 | 0.0 | 0.0 | 0.00 | 1.29 | 0.00 | 62 | 1015.3 |
| 20260508043045 | 55 | 0 | 0.0 | 1.0 | 0.00 | 1.29 | 0.00 | 62 | 1015.1 |
| 20260508042524 | 55 | 0 | 0.0 | 1.0 | 0.00 | 1.29 | 0.00 | 62 | 1014.9 |
| 20260508042024 | 55 | 0 | 0.0 | 1.0 | 0.00 | 1.29 | 0.00 | 63 | 1015.2 |
| 20260508041536 | 55 | 0 | 0.0 | 0.0 | 0.00 | 1.29 | 0.00 | 64 | 1015.1 |
| 20260508041023 | 55 | 0 | 0.0 | 0.0 | 0.00 | 1.29 | 0.00 | 63 | 1015.2 |
| 20260508040523 | 55 | 0 | 0.0 | 0.0 | 0.00 | 1.29 | 0.00 | 63 | 1015.1 |
| 20260508040044 | 55 | 0 | 0.0 | 0.0 | 0.00 | 1.29 | 0.00 | 62 | 1014.9 |
| 20260508035524 | 56 | 0 | 0.0 | 0.0 | 0.00 | 1.29 | 1.29 | 63 | 1014.9 |
| 20260508035025 | 56 | 0 | 0.0 | 0.0 | 0.00 | 1.29 | 1.29 | 61 | 1014.8 |
| 20260508034546 | 56 | 0 | 0.0 | 0.0 | 0.00 | 1.29 | 1.29 | 61 | 1014.8 |
| 20260508034022 | 57 | 0 | 0.0 | 0.0 | 0.00 | 1.29 | 1.29 | 60 | 1014.9 |
| 20260508033522 | 57 | 0 | 0.0 | 0.0 | 0.00 | 1.29 | 1.29 | 60 | 1014.9 |
| 20260508033038 | 57 | 0 | 0.0 | 0.0 | 0.00 | 1.29 | 1.29 | 59 | 1014.9 |
| 20260508032524 | 57 | 0 | 0.0 | 0.0 | 0.00 | 1.29 | 1.29 | 59 | 1014.9 |
| 20260508032024 | 58 | 0 | 0.0 | 1.0 | 0.00 | 1.29 | 1.29 | 58 | 1014.7 |
| 20260508031537 | 58 | 0 | 0.0 | 1.0 | 0.00 | 1.29 | 1.29 | 58 | 1014.8 |
| 20260508031023 | 59 | 0 | 0.0 | 0.0 | 0.00 | 1.29 | 1.29 | 57 | 1014.7 |
| 20260508030523 | 59 | 0 | 0.0 | 0.0 | 0.00 | 1.29 | 1.29 | 55 | 1014.8 |
| 20260508030037 | 60 | 0 | 0.0 | 0.0 | 0.00 | 1.29 | 1.29 | 52 | 1014.6 |
| 20260508025523 | 60 | 0 | 0.0 | 1.0 | 0.00 | 1.30 | 1.29 | 51 | 1014.6 |
| 20260508025023 | 61 | 0 | 0.0 | 2.0 | 0.00 | 1.30 | 1.29 | 49 | 1014.5 |
| 20260508024536 | 61 | 283 | 0.0 | 2.0 | 0.00 | 1.30 | 1.29 | 48 | 1014.5 |
| 20260508024023 | 61 | 295 | 0.0 | 5.0 | 0.00 | 1.30 | 1.29 | 49 | 1014.4 |
| 20260508023523 | 61 | 290 | 2.0 | 6.0 | 0.00 | 1.30 | 1.29 | 48 | 1014.4 |
| 20260508023039 | 61 | 288 | 2.0 | 6.0 | 0.00 | 1.30 | 1.29 | 49 | 1014.2 |
| 20260508022523 | 60 | 300 | 2.0 | 4.0 | 0.00 | 1.30 | 1.29 | 52 | 1014.3 |
| 20260508022023 | 60 | 287 | 1.0 | 3.0 | 0.00 | 1.30 | 1.29 | 55 | 1014.2 |
| 20260508021539 | 60 | 293 | 1.0 | 2.0 | 0.00 | 1.30 | 1.29 | 55 | 1014.2 |
| 20260508021026 | 60 | 289 | 0.0 | 1.0 | 0.00 | 1.30 | 1.29 | 55 | 1014.2 |
| 20260508020522 | 61 | 0 | 0.0 | 1.0 | 0.00 | 1.30 | 1.29 | 55 | 1014.4 |
| 20260508020040 | 61 | 289 | 0.0 | 1.0 | 0.00 | 1.30 | 1.29 | 54 | 1014.3 |
| 20260508015524 | 61 | 0 | 0.0 | 1.0 | 0.00 | 1.36 | 1.29 | 54 | 1013.9 |
| 20260508015023 | 61 | 288 | 0.0 | 2.0 | 0.00 | 1.36 | 1.29 | 54 | 1014.1 |
| 20260508014538 | 62 | 0 | 1.0 | 4.0 | 0.00 | 1.36 | 1.29 | 53 | 1014.0 |
| 20260508014023 | 62 | 0 | 1.0 | 4.0 | 0.00 | 1.36 | 1.29 | 53 | 1013.9 |
| 20260508013523 | 62 | 0 | 1.0 | 4.0 | 0.00 | 1.36 | 1.29 | 52 | 1013.7 |
| 20260508013037 | 62 | 297 | 1.0 | 4.0 | 0.00 | 1.36 | 1.29 | 52 | 1013.6 |
| 20260508012524 | 62 | 288 | 2.0 | 4.0 | 0.00 | 1.36 | 1.29 | 52 | 1013.5 |
| 20260508012026 | 62 | 300 | 1.0 | 3.0 | 0.00 | 1.36 | 1.29 | 52 | 1013.4 |
| 20260508011538 | 63 | 288 | 1.0 | 4.0 | 0.00 | 1.36 | 1.29 | 52 | 1013.3 |
| 20260508011024 | 63 | 287 | 1.0 | 4.0 | 0.00 | 1.36 | 1.29 | 52 | 1013.2 |
| 20260508010523 | 63 | 293 | 2.0 | 6.0 | 0.00 | 1.36 | 1.29 | 52 | 1013.2 |
| 20260508010038 | 63 | 0 | 2.0 | 6.0 | 0.00 | 1.36 | 1.29 | 52 | 1013.1 |
| 20260508005522 | 63 | 287 | 2.0 | 6.0 | 0.00 | 2.34 | 1.29 | 52 | 1012.9 |
| 20260508005022 | 64 | 290 | 2.0 | 6.0 | 0.00 | 2.34 | 1.29 | 51 | 1012.9 |
| 20260508004538 | 64 | 296 | 2.0 | 6.0 | 0.00 | 2.34 | 1.29 | 51 | 1012.9 |
| 20260508004022 | 64 | 285 | 1.0 | 6.0 | 0.00 | 2.34 | 1.29 | 51 | 1012.8 |
| 20260508003523 | 64 | 292 | 0.0 | 3.0 | 0.00 | 2.34 | 1.29 | 51 | 1012.8 |
| 20260508003040 | 64 | 285 | 0.0 | 3.0 | 0.00 | 2.34 | 1.29 | 50 | 1012.5 |
| 20260508002523 | 65 | 0 | 0.0 | 3.0 | 0.00 | 2.34 | 1.29 | 50 | 1012.4 |
| 20260508002025 | 65 | 0 | 1.0 | 5.0 | 0.00 | 2.34 | 1.29 | 50 | 1012.5 |
| 20260508001538 | 65 | 303 | 0.0 | 6.0 | 0.00 | 2.34 | 1.29 | 49 | 1012.4 |
| 20260508001022 | 66 | 302 | 1.0 | 6.0 | 0.00 | 2.34 | 1.29 | 48 | 1012.2 |
| 20260508000526 | 66 | 290 | 1.0 | 5.0 | 0.00 | 2.34 | 1.29 | 48 | 1012.2 |
| 20260508000038 | 66 | 287 | 1.0 | 4.0 | 0.00 | 2.34 | 1.29 | 48 | 1011.9 |
| 20260507235527 | 66 | 290 | 1.0 | 6.0 | 0.00 | 2.42 | 1.29 | 47 | 1011.9 |
| 20260507235022 | 67 | 277 | 1.0 | 6.0 | 0.00 | 2.42 | 1.29 | 46 | 1012.0 |
| 20260507234545 | 68 | 283 | 3.0 | 12.0 | 0.00 | 2.42 | 1.29 | 45 | 1012.0 |
| 20260507234023 | 68 | 303 | 3.0 | 12.0 | 0.00 | 2.42 | 1.29 | 45 | 1011.8 |
| 20260507233523 | 68 | 304 | 3.0 | 12.0 | 0.00 | 2.42 | 1.29 | 44 | 1011.8 |
| 20260507233036 | 68 | 281 | 1.0 | 7.0 | 0.00 | 2.42 | 1.29 | 45 | 1011.7 |
| 20260507232525 | 69 | 277 | 1.0 | 5.0 | 0.00 | 2.42 | 1.29 | 43 | 1011.5 |
| 20260507232023 | 69 | 287 | 1.0 | 7.0 | 0.00 | 2.42 | 1.29 | 43 | 1011.4 |
| 20260507231540 | 69 | 68 | 3.0 | 7.0 | 0.00 | 2.42 | 1.29 | 42 | 1011.3 |
| 20260507231023 | 70 | 288 | 2.0 | 7.0 | 0.00 | 2.42 | 1.29 | 42 | 1011.3 |
| 20260507230523 | 70 | 276 | 2.0 | 6.0 | 0.00 | 2.42 | 1.29 | 42 | 1011.2 |
| 20260507230039 | 71 | 294 | 2.0 | 7.0 | 0.00 | 2.42 | 1.29 | 41 | 1011.1 |
| 20260507225523 | 71 | 295 | 3.0 | 7.0 | 0.00 | 2.42 | 1.29 | 41 | 1011.0 |
| 20260507225026 | 72 | 293 | 2.0 | 9.0 | 0.00 | 2.42 | 1.29 | 41 | 1011.0 |
| 20260507224539 | 72 | 288 | 3.0 | 9.0 | 0.00 | 2.42 | 1.29 | 41 | 1011.1 |
| 20260507224022 | 72 | 274 | 4.0 | 9.0 | 0.00 | 2.42 | 1.29 | 40 | 1011.1 |
| 20260507223523 | 73 | 285 | 1.0 | 8.0 | 0.00 | 2.42 | 1.29 | 41 | 1010.8 |
| 20260507223038 | 73 | 301 | 4.0 | 8.0 | 0.00 | 2.42 | 1.29 | 40 | 1010.6 |
| 20260507222522 | 74 | 290 | 2.0 | 7.0 | 0.00 | 2.42 | 1.29 | 42 | 1010.6 |
| 20260507222023 | 74 | 12 | 2.0 | 7.0 | 0.00 | 2.42 | 1.29 | 42 | 1010.5 |
| 20260507221540 | 74 | 285 | 3.0 | 7.0 | 0.00 | 2.42 | 1.29 | 41 | 1010.4 |
| 20260507221023 | 75 | 290 | 2.0 | 9.0 | 0.00 | 2.42 | 1.29 | 42 | 1010.3 |
| 20260507220525 | 75 | 288 | 5.0 | 9.0 | 0.00 | 2.42 | 1.29 | 41 | 1010.2 |
| 20260507220039 | 75 | 293 | 4.0 | 9.0 | 0.00 | 2.42 | 1.29 | 41 | 1010.1 |
| 20260507215526 | 75 | 302 | 4.0 | 9.0 | 0.00 | 2.42 | 1.29 | 41 | 1010.1 |
| 20260507215022 | 76 | 289 | 3.0 | 9.0 | 0.00 | 2.42 | 1.29 | 41 | 1010.1 |
| 20260507214538 | 75 | 307 | 2.0 | 11.0 | 0.00 | 2.42 | 1.29 | 41 | 1009.9 |
| 20260507214023 | 76 | 307 | 2.0 | 11.0 | 0.00 | 2.42 | 1.29 | 43 | 1010.0 |
| 20260507213524 | 76 | 277 | 1.0 | 8.0 | 0.00 | 2.42 | 1.29 | 42 | 1009.9 |
| 20260507213044 | 76 | 289 | 1.0 | 6.0 | 0.00 | 2.42 | 1.29 | 42 | 1009.9 |
| 20260507212522 | 75 | 345 | 3.0 | 6.0 | 0.00 | 2.42 | 1.29 | 44 | 1009.8 |
| 20260507212022 | 75 | 103 | 1.0 | 5.0 | 0.00 | 2.42 | 1.29 | 44 | 1009.8 |
| 20260507211543 | 75 | 296 | 2.0 | 11.0 | 0.00 | 2.42 | 1.29 | 44 | 1009.8 |
| 20260507211024 | 75 | 283 | 3.0 | 11.0 | 0.00 | 2.42 | 1.29 | 44 | 1009.8 |
| 20260507210524 | 74 | 288 | 1.0 | 6.0 | 0.00 | 2.42 | 1.29 | 46 | 1009.9 |
| 20260507210035 | 74 | 294 | 2.0 | 9.0 | 0.00 | 2.42 | 1.29 | 47 | 1009.9 |
| 20260507205526 | 74 | 303 | 0.0 | 9.0 | 0.00 | 2.42 | 1.29 | 46 | 1009.8 |
| 20260507205022 | 74 | 294 | 3.0 | 11.0 | 0.00 | 2.42 | 1.29 | 45 | 1009.8 |
| 20260507204543 | 75 | 307 | 4.0 | 11.0 | 0.00 | 2.42 | 1.29 | 45 | 1009.7 |
| 20260507204022 | 75 | 264 | 5.0 | 11.0 | 0.00 | 2.42 | 1.29 | 43 | 1009.6 |
| 20260507203527 | 76 | 294 | 1.0 | 10.0 | 0.00 | 2.42 | 1.29 | 45 | 1009.8 |
| 20260507203042 | 76 | 304 | 4.0 | 10.0 | 0.00 | 2.42 | 1.29 | 44 | 1009.7 |
| 20260507202522 | 76 | 326 | 1.0 | 7.0 | 0.00 | 2.42 | 1.29 | 44 | 1009.6 |
| 20260507202022 | 77 | 293 | 2.0 | 8.0 | 0.00 | 2.42 | 1.29 | 41 | 1009.6 |
| 20260507201538 | 78 | 299 | 1.0 | 8.0 | 0.00 | 2.42 | 1.29 | 45 | 1009.5 |
| 20260507201024 | 78 | 144 | 0.0 | 2.0 | 0.00 | 2.42 | 1.29 | 44 | 1009.6 |
| 20260507200525 | 78 | 35 | 0.0 | 5.0 | 0.00 | 2.42 | 1.29 | 43 | 1009.7 |
| 20260507200043 | 78 | 111 | 1.0 | 5.0 | 0.00 | 2.42 | 1.29 | 43 | 1009.7 |
| 20260507195522 | 78 | 300 | 1.0 | 7.0 | 0.00 | 2.42 | 1.29 | 45 | 1009.6 |
| 20260507195023 | 78 | 212 | 2.0 | 7.0 | 0.00 | 2.42 | 1.29 | 44 | 1009.5 |
| 20260507194537 | 77 | 303 | 1.0 | 12.0 | 0.00 | 2.42 | 1.29 | 45 | 1009.7 |
| 20260507194023 | 77 | 112 | 2.0 | 12.0 | 0.00 | 2.42 | 1.29 | 45 | 1009.8 |
| 20260507193525 | 76 | 315 | 6.0 | 12.0 | 0.00 | 2.42 | 1.29 | 44 | 1009.9 |
| 20260507193048 | 77 | 307 | 4.0 | 12.0 | 0.00 | 2.42 | 1.29 | 43 | 1010.0 |
| 20260507192522 | 77 | 32 | 4.0 | 12.0 | 0.00 | 2.42 | 1.29 | 44 | 1009.9 |
| 20260507192022 | 77 | 112 | 4.0 | 10.0 | 0.00 | 2.42 | 1.29 | 44 | 1009.9 |
| 20260507191538 | 77 | 282 | 2.0 | 9.0 | 0.00 | 2.42 | 1.29 | 46 | 1010.0 |
| 20260507191023 | 76 | 286 | 5.0 | 10.0 | 0.00 | 2.42 | 1.29 | 46 | 1009.9 |
| 20260507190522 | 76 | 300 | 5.0 | 10.0 | 0.00 | 2.42 | 1.29 | 45 | 1010.1 |
| 20260507190043 | 77 | 283 | 3.0 | 9.0 | 0.00 | 2.42 | 1.29 | 46 | 1010.1 |
| 20260507185523 | 77 | 283 | 2.0 | 12.0 | 0.00 | 2.42 | 1.29 | 50 | 1010.3 |
| 20260507185023 | 75 | 325 | 4.0 | 12.0 | 0.00 | 2.42 | 1.29 | 49 | 1010.4 |
| 20260507184532 | 75 | 281 | 3.0 | 11.0 | 0.00 | 2.42 | 1.29 | 52 | 1010.4 |
| 20260507184023 | 75 | 289 | 5.0 | 9.0 | 0.00 | 2.42 | 1.29 | 55 | 1010.5 |
| 20260507183522 | 75 | 300 | 4.0 | 8.0 | 0.00 | 2.42 | 1.29 | 62 | 1010.6 |
| 20260507183043 | 76 | 288 | 2.0 | 8.0 | 0.00 | 2.42 | 1.29 | 63 | 1010.6 |
| 20260507182523 | 76 | 293 | 3.0 | 8.0 | 0.00 | 2.42 | 1.29 | 65 | 1010.6 |
| 20260507182025 | 75 | 295 | 3.0 | 9.0 | 0.00 | 2.42 | 1.29 | 67 | 1010.6 |
| 20260507181538 | 74 | 293 | 2.0 | 9.0 | 0.00 | 2.42 | 1.29 | 67 | 1010.8 |
| 20260507181026 | 74 | 297 | 2.0 | 6.0 | 0.00 | 2.42 | 1.29 | 68 | 1010.6 |
| 20260507180522 | 75 | 286 | 2.0 | 6.0 | 0.00 | 2.42 | 1.29 | 67 | 1010.7 |
| 20260507180037 | 76 | 288 | 2.0 | 6.0 | 0.00 | 2.42 | 1.29 | 65 | 1010.6 |
| 20260507175523 | 76 | 0 | 1.0 | 5.0 | 0.00 | 2.42 | 1.29 | 66 | 1010.7 |
| 20260507175023 | 76 | 144 | 0.0 | 3.0 | 0.00 | 2.42 | 1.29 | 66 | 1010.6 |
| 20260507174538 | 75 | 0 | 0.0 | 3.0 | 0.00 | 2.42 | 1.29 | 69 | 1010.7 |
| 20260507174022 | 75 | 20 | 0.0 | 5.0 | 0.00 | 2.42 | 1.29 | 68 | 1010.6 |
| 20260507173523 | 75 | 304 | 2.0 | 5.0 | 0.00 | 2.42 | 1.29 | 68 | 1010.6 |
| 20260507173045 | 75 | 294 | 1.0 | 8.0 | 0.00 | 2.42 | 1.29 | 68 | 1010.6 |
| 20260507172522 | 76 | 70 | 1.0 | 8.0 | 0.00 | 2.42 | 1.29 | 68 | 1010.5 |
| 20260507172022 | 74 | 304 | 2.0 | 8.0 | 0.00 | 2.42 | 1.29 | 68 | 1010.4 |
| 20260507171550 | 75 | 281 | 2.0 | 6.0 | 0.00 | 2.42 | 1.29 | 67 | 1010.4 |
| 20260507171025 | 74 | 283 | 3.0 | 7.0 | 0.00 | 2.42 | 1.29 | 67 | 1010.4 |
| 20260507170526 | 75 | 300 | 3.0 | 11.0 | 0.00 | 2.42 | 1.29 | 68 | 1010.5 |
| 20260507170041 | 75 | 311 | 1.0 | 11.0 | 0.00 | 2.42 | 1.29 | 69 | 1010.4 |
| 20260507165522 | 75 | 290 | 4.0 | 11.0 | 0.00 | 2.47 | 1.29 | 64 | 1010.5 |
| 20260507165022 | 76 | 198 | 1.0 | 5.0 | 0.00 | 2.47 | 1.29 | 68 | 1010.5 |
| 20260507164539 | 76 | 44 | 2.0 | 4.0 | 0.00 | 2.47 | 1.29 | 67 | 1010.6 |
| 20260507164022 | 77 | 20 | 1.0 | 4.0 | 0.00 | 2.47 | 1.29 | 68 | 1010.6 |
| 20260507163523 | 77 | 281 | 1.0 | 4.0 | 0.00 | 2.47 | 1.29 | 69 | 1010.6 |
| 20260507163037 | 76 | 288 | 1.0 | 3.0 | 0.00 | 2.47 | 1.29 | 70 | 1010.7 |
| 20260507162523 | 75 | 0 | 0.0 | 3.0 | 0.00 | 2.47 | 1.29 | 70 | 1010.8 |
| 20260507162022 | 74 | 0 | 0.0 | 4.0 | 0.00 | 2.47 | 1.29 | 71 | 1010.7 |
| 20260507161541 | 73 | 78 | 0.0 | 4.0 | 0.00 | 2.47 | 1.29 | 72 | 1010.9 |
| 20260507161024 | 74 | 290 | 1.0 | 4.0 | 0.00 | 2.47 | 1.29 | 70 | 1011.1 |
| 20260507160523 | 74 | 112 | 0.0 | 3.0 | 0.00 | 2.47 | 1.29 | 72 | 1011.3 |
| 20260507160045 | 74 | 347 | 0.0 | 3.0 | 0.00 | 2.47 | 1.29 | 71 | 1011.3 |
| 20260507155522 | 74 | 0 | 0.0 | 3.0 | 0.00 | 2.47 | 1.29 | 72 | 1011.5 |
| 20260507155028 | 74 | 0 | 0.0 | 4.0 | 0.00 | 2.47 | 1.29 | 72 | 1011.3 |
| 20260507154538 | 74 | 0 | 0.0 | 4.0 | 0.00 | 2.47 | 1.29 | 73 | 1011.0 |
| 20260507154026 | 73 | 300 | 0.0 | 2.0 | 0.00 | 2.47 | 1.29 | 75 | 1011.1 |
| 20260507153525 | 72 | 300 | 0.0 | 2.0 | 0.00 | 2.47 | 1.29 | 74 | 1011.1 |
| 20260507153037 | 73 | 0 | 0.0 | 1.0 | 0.00 | 2.47 | 1.29 | 74 | 1011.4 |
| 20260507152526 | 73 | 0 | 0.0 | 2.0 | 0.00 | 2.47 | 1.29 | 76 | 1011.6 |
| 20260507152023 | 72 | 0 | 0.0 | 2.0 | 0.00 | 2.47 | 1.29 | 77 | 1011.5 |
| 20260507151538 | 71 | 340 | 0.0 | 4.0 | 0.00 | 2.47 | 1.29 | 78 | 1011.4 |